This is the latest recevied weather packets stored in our database for station/object WP3XM. If no packets are shown the sender has not sent any weather packets the latest 10 day(s).
| Time | Temp. | Humidity | Pressure | Rain* | Wind** | Luminosity | Snow |
|---|---|---|---|---|---|---|---|
| 1777510919 | 27.22° C | 80% | 1015.7 hPa | 0 mm | - | 0 W/m² | - |
| 1777510616 | 26.67° C | 80% | 1015.5 hPa | 0 mm | - | 0 W/m² | - |
| 1777510313 | 26.67° C | 81% | 1015.5 hPa | 0 mm | - | 0 W/m² | - |
| 1777510009 | 26.11° C | 82% | 1015.3 hPa | 0 mm | - | 0 W/m² | - |
| 1777509705 | 26.11° C | 82% | 1015.2 hPa | 0 mm | - | 0 W/m² | - |
| 1777509401 | 26.11° C | 81% | 1015.2 hPa | 0 mm | - | 0 W/m² | - |
| 1777509099 | 26.11° C | 81% | 1015.2 hPa | 0 mm | - | 0 W/m² | - |
| 1777508796 | 26.11° C | 81% | 1015.5 hPa | 0 mm | - | 0 W/m² | - |
| 1777508493 | 25.56° C | 81% | 1015.2 hPa | 0 mm | - | 0 W/m² | - |
| 1777508190 | 25.56° C | 81% | 1015.5 hPa | 0 mm | - | 0 W/m² | - |
| 1777507886 | 26.11° C | 81% | 1015 hPa | 0 mm | - | 0 W/m² | - |
| 1777507584 | 26.11° C | 81% | 1015 hPa | 0 mm | - | 0 W/m² | - |
| 1777507281 | 25.56° C | 82% | 1015.1 hPa | 0 mm | - | 0 W/m² | - |
| 1777506978 | 26.11° C | 81% | 1014.7 hPa | 0 mm | - | 0 W/m² | - |
| 1777506675 | 26.11° C | 80% | 1014.9 hPa | 0 mm | - | 0 W/m² | - |
| 1777506372 | 26.11° C | 81% | 1014.5 hPa | 0 mm | - | 0 W/m² | - |
| 1777506068 | 26.11° C | 82% | 1014.4 hPa | 0 mm | - | 0 W/m² | - |
| 1777505763 | 26.11° C | 83% | 1014.3 hPa | 0 mm | - | 0 W/m² | - |
| 1777505460 | 26.11° C | 84% | 1014.3 hPa | 0 mm | - | 0 W/m² | - |
| 1777505156 | 26.67° C | 84% | 1014.4 hPa | 0 mm | - | 0 W/m² | - |
| 1777504854 | 26.67° C | 84% | 1014.4 hPa | 0 mm | - | 0 W/m² | - |
| 1777504551 | 26.67° C | 84% | 1014.4 hPa | 0 mm | - | 0 W/m² | - |
| 1777504246 | 26.67° C | 83% | 1014.5 hPa | 0 mm | - | 0 W/m² | - |
| 1777503942 | 26.67° C | 83% | 1014.6 hPa | 0 mm | - | 0 W/m² | - |
| 1777503639 | 26.67° C | 83% | 1014.6 hPa | 0 mm | - | 0 W/m² | - |
* Rain latest hour (hover to see other rain measurements)
** Current wind speed in m/s (hover to see current wind gust speed)